Regional Weather Roundup
Issued by NWS Northern Indiana

Home | Current Version | Previous Version | Graphics & Text | Print | Product List | Glossary On
Versions: 1 2 3 4 5 6 7 8 9 10 11 12 13 14 15 16 17 18 19 20 21 22 23 24 25 26 27 28 29 30 31 32 33 34 35 36 37 38 39 40 41 42 43 44 45 46 47 48 49 50
000
ASUS43 KIWX 241610
RWRIWX

KIWX WEATHER ROUNDUP
NATIONAL WEATHER SERVICE NORTHERN INDIANA
1200 PM EDT FRI APR 24 2015

NOTE: "FAIR" INDICATES FEW OR NO CLOUDS BELOW 12,000 FEET WITH NO
SIGNIFICANT WEATHER AND/OR OBSTRUCTIONS TO VISIBILITY.

* THESE STATIONS ARE NOT UNDER NWS QUALITY CONTROL. THEY ALSO MAY NOT
  REPORT WEATHER SUCH AS PRECIPITATION OR FOG.

INZ001>027-241700-
NORTHERN INDIANA

CITY           SKY/WX    TMP DP  RH WIND       PRES   REMARKS
GARY*          MOSUNNY   57  -6   7 VRB3      30.08F
VALPARAISO     SUNNY     56  17  21 S9        30.09S
MICHIGAN CITY* PTSUNNY   55   7  14 CALM      30.08F
LAPORTE*       MOSUNNY   56  17  22 CALM      30.09S
KNOX*          SUNNY     54 N/A N/A W5        30.08F
SOUTH BEND     SUNNY     55  12  18 CALM      30.10S
ELKHART*       SUNNY     54  12  19 CALM      30.09F
GOSHEN         SUNNY     53  22  29 W5        30.09F
MONTICELLO*    MOSUNNY   55  20  25 CALM      30.09S
LOGANSPORT*    SUNNY     54  12  19 SW6       30.11S
ROCHESTER*     SUNNY     57  18  21 S7        30.09F
WARSAW*        SUNNY     54  19  26 CALM      30.09S
ANGOLA*        SUNNY     54  43  66 VRB5      30.08F
FORT WAYNE     MOSUNNY   54  19  25 VRB3      30.10F
HUNTINGTON*    SUNNY     54  19  25 S5        30.10S
PERU/GRISSOM   MOSUNNY   55  21  27 SW6       30.09F
MARION*        SUNNY     54  15  21 W10       30.11S

$$
INZ028>050-241700-
CENTRAL INDIANA

CITY           SKY/WX    TMP DP  RH WIND       PRES   REMARKS
LAFAYETTE      SUNNY     56  20  24 S6        30.09F
KOKOMO*        SUNNY     57  21  24 S6        30.10S
MUNCIE*        SUNNY     54  20  26 CALM      30.10F
INDIANAPOLIS   PTSUNNY   56  18  22 VRB3      30.09F

$$
MIZ043>046-050>051-056>058-064>065-071>073-077>080-241700-
SOUTHWEST LOWER MICHIGAN

CITY           SKY/WX    TMP DP  RH WIND       PRES   REMARKS
BATTLE CREEK   SUNNY     48  24  39 CALM      30.10F
BENTON HARBOR  MOSUNNY   51  23  33 MISG      30.08F
COLDWATER*     SUNNY     50  22  33 CALM      30.10S
HILLSDALE*     SUNNY     51  21  31 NW7       30.09S
HOLLAND        SUNNY     52  28  39 CALM      30.09F
GRAND RAPIDS   SUNNY     48  21  34 CALM      30.09F
KALAMAZOO      SUNNY    N/A N/A N/A MISG      30.09F
STURGIS*       SUNNY     52  25  35 CALM      30.08F
THREE RIVERS*  FAIR      51  26  38 NE5       30.10S

$$
OHZ001>008-015>018-024>025-241700-
NORTHWEST OHIO

CITY           SKY/WX    TMP DP  RH WIND       PRES   REMARKS
WAUSEON*       FAIR      50  27  40 NW9       30.11S
DEFIANCE       SUNNY     53  23  31 VRB6      30.10F
FINDLAY        SUNNY     53  21  28 SW9       30.10F
TOLEDO EXPRESS SUNNY     50  24  36 W6        30.11F
TOLEDO METCALF SUNNY     51  24  34 W9        30.12F
LIMA           SUNNY     51  22  31 W9        30.10F

$$
AND FOR LAKE MICHIGAN COASTAL AND OPEN LAKE BUOY OBSERVATIONS

STATION/POSITION TEMP    WIND        PRES    VSBY  WAVE
                 AIR SEA DIR/SP/G                  HT/PER
                 (F)     (DEG/KT/KT) (MB)    (MI)  (FT/S)
CALUMET HARBOR    50      60/  5/  6   N/A
MICHIGAN CITY     48     320/  6/  7   N/A
BURNS HARBOR      47     360/  4/  6 1019.3S
SAINT JOSEPH      53     220/  2/  3 1019.0F
MICHIGAN CITY     44 45  350/  4/  6   N/A           1

$$
&&


USA.gov is the U.S. government's official web portal to all federal, state and local government web resources and services.